Simultaneous Nadir Overpasses (SNOs) Predictions

Prediction of SNOs between FY3D and AQUA Satellite Orbit:

Table of predicted SNOs for the next 14.0 days since TLE Epoch: 8/5/2023
Index Date (FY3D) Time (FY3D) Lat,Lon (FY3D) SZA (FY3D ) Date (AQUA) Time (AQUA) Lat,Lon (AQUA) SZA (AQUA ) Distance(km) Time Diff (sec)
1 08/07/2023 07:12:58 -78.83,-127.65 116.91 08/07/2023 07:13:44 -78.84,-127.69 116.92 1.14 46
2 08/07/2023 08:03:34 78.44, 42.19 62.56 08/07/2023 08:02:59 78.44, 42.11 62.58 1.99 35
3 08/09/2023 20:58:33 78.76,-153.52 63.71 08/09/2023 20:59:02 78.76,-153.58 63.71 1.35 29
4 08/09/2023 21:49:10 -78.47, 15.62 116.68 08/09/2023 21:48:19 -78.47, 15.69 116.67 1.51 51
5 08/12/2023 10:44:08 -78.79, 179.89 115.49 08/12/2023 10:44:20 -78.78,-179.99 115.52 2.99 12
6 08/12/2023 11:34:44 78.40, -10.33 63.98 08/12/2023 11:33:35 78.40, -10.24 63.99 2.08 69
7 08/14/2023 23:39:41 -80.14, -25.62 112.55 08/14/2023 23:40:55 -80.30, -25.14 112.49 20.13 74
8 08/15/2023 00:29:39 78.59, 154.85 65.00 08/15/2023 00:29:33 78.60, 154.77 65.01 1.79 6
9 08/17/2023 13:24:39 78.96, -41.28 66.30 08/17/2023 13:25:34 78.95, -41.20 66.27 1.88 55



Historial Predications of SNOs between FY3D and AQUA
